| Date | Time | Temp. (oF) | Dew Point (oF) | Rel. Hum. (%) | Press. (in.) | Wind Dir. | Wind Speed (mph) | Hourly Rainfall (in.) |
|
|---|---|---|---|---|---|---|---|---|---|
| 1 | 12/03 | 00:00 | 47 | 44 | 90 | 29.68 | W | 3 | 0.00 |
| 2 | 12/02 | 23:00 | 48 | 44 | 89 | 29.68 | NNW | 3 | 0.00 |
| 3 | 12/02 | 22:00 | 48 | 44 | 89 | 29.68 | WSW | 0 | 0.00 |
| 4 | 12/02 | 21:00 | 50 | 46 | 88 | 29.67 | N | 4 | 0.00 |
| 5 | 12/02 | 20:00 | 50 | 46 | 88 | 29.67 | N | 3 | 0.00 |
| 6 | 12/02 | 19:00 | 51 | 47 | 88 | 29.65 | WSW | 3 | 0.02 |
| 7 | 12/02 | 18:00 | 53 | 49 | 88 | 29.61 | WSW | 3 | 0.01 |
| 8 | 12/02 | 17:00 | 53 | 49 | 88 | 29.59 | SSW | 2 | 0.00 |
| 9 | 12/02 | 16:00 | 53 | 49 | 88 | 29.60 | SSW | 4 | 0.00 |
| 10 | 12/02 | 15:00 | 53 | 49 | 88 | 29.61 | SSW | 2 | 0.02 |
| 11 | 12/02 | 14:00 | 52 | 48 | 88 | 29.65 | S | 5 | 0.02 |
| 12 | 12/02 | 13:00 | 51 | 47 | 88 | 29.69 | S | 2 | 0.02 |
| 13 | 12/02 | 12:00 | 50 | 46 | 88 | 29.73 | SE | 0 | 0.06 |
| 14 | 12/02 | 11:00 | 49 | 45 | 88 | 29.78 | SE | 0 | 0.02 |
| 15 | 12/02 | 10:00 | 48 | 44 | 88 | 29.81 | SSW | 3 | 0.04 |
| 16 | 12/02 | 09:00 | 47 | 43 | 89 | 29.84 | N | 0 | 0.04 |
| 17 | 12/02 | 08:00 | 47 | 43 | 89 | 29.85 | S | 3 | 0.00 |
| 18 | 12/02 | 07:00 | 47 | 43 | 89 | 29.82 | SSW | 0 | 0.01 |
| 19 | 12/02 | 06:00 | 47 | 43 | 89 | 29.83 | SSE | 0 | 0.00 |
| 20 | 12/02 | 05:00 | 47 | 43 | 89 | 29.83 | SSE | 2 | 0.00 |
| 21 | 12/02 | 04:00 | 47 | 43 | 89 | 29.84 | S | 3 | 0.00 |
| 22 | 12/02 | 03:00 | 47 | 43 | 88 | 29.86 | S | 5 | 0.00 |
| 23 | 12/02 | 02:00 | 48 | 44 | 88 | 29.86 | S | 0 | 0.00 |
| 24 | 12/02 | 01:00 | 48 | 44 | 88 | 29.88 | S | 5 | 0.00 |